Regional Weather Roundup
Issued by NWS

Home | Current Version | Previous Version | Text Only | Print | Product List | Glossary On
Versions: 1 2 3 4 5 6 7 8 9 10 11 12 13 14 15 16 17 18 19 20 21 22 23 24 25 26 27 28 29 30 31 32 33 34 35 36 37 38 39 40 41 42 43 44 45 46 47 48 49 50
000
ASCA44 KEWX 280720
RWRMX

LATIN AMERICA AND CARIBBEAN REGIONAL WEATHER ROUNDUP
NATIONAL WEATHER SERVICE AUSTIN/SAN ANTONIO TX
200 AM CDT TUE MAR 28 2017

NOTE: "FAIR" INDICATED FEW OR NO CLOUDS BELOW 12,000 FEET WITH NO
SIGNIFICANT WEATHER AND/OR OBSTRUCTIONS TO VISIBILITY.

BAJA CALIFORNIA

CITY           SKY/WX    TMP DP  RH WIND       PRES   REMARKS
MEXICALI       CLEAR     64  39  39 W16       29.88R
S.J. DEL CABO    N/A    N/A N/A N/A MISG        N/A
TIJUANA        CLEAR     55  48  76 CALM      30.05S

NORTHWESTERN MEXICO

CITY           SKY/WX    TMP DP  RH WIND       PRES   REMARKS
HERMOSILLO     CLEAR     64  48  55 CALM      29.89R

NORTHEASTERN MEXICO

CITY           SKY/WX    TMP DP  RH WIND       PRES   REMARKS
MONCLOVA         N/A    N/A N/A N/A MISG        N/A
MONTERREY      MOCLDY    73  66  78 E5        29.79F
REYNOSA          N/A    N/A N/A N/A MISG        N/A
CD. VICTORIA     N/A    N/A N/A N/A MISG        N/A

WESTERN MEXICO

CITY           SKY/WX    TMP DP  RH WIND       PRES   REMARKS
AGUASCALIENTES   N/A    N/A N/A N/A MISG        N/A
COLIMA           N/A    N/A N/A N/A MISG        N/A
GUADALAJARA    CLEAR     64  25  22 W8        30.11F
MAZATLAN       CLEAR     61  59  94 NE3       29.93F
P. VALLARTA    CLEAR     68  68 100 NE5       29.89F
URUAPAN          N/A    N/A N/A N/A MISG        N/A
ZACATECAS      CLEAR     50   9  18 S7        30.18F WCI  47

CENTRAL MEXICO

CITY           SKY/WX    TMP DP  RH WIND       PRES   REMARKS
CUERNAVACA       N/A    N/A N/A N/A MISG        N/A
MEXICO CITY    MOCLDY    63  39  42 SE3       30.26S
MORELIA        CLEAR     55  46  71 CALM      30.15F
POZA RICA        N/A    N/A N/A N/A MISG        N/A
S. LUIS POTOSI CLEAR     59  45  58 CALM      30.12R
TOLUCA         PTCLDY    48  41  76 NW5       30.36S WCI  46

SOUTHERN MEXICO

CITY           SKY/WX    TMP DP  RH WIND       PRES   REMARKS
ACAPULCO       CLEAR     77  72  83 CALM      29.87S
B. DE HUATULCO   N/A    N/A N/A N/A MISG        N/A
P. ESCONDIDO     N/A    N/A N/A N/A MISG        N/A
VERACRUZ         N/A    N/A N/A N/A MISG        N/A

YUCATAN PENINSULA

CITY           SKY/WX    TMP DP  RH WIND       PRES   REMARKS
CAMPECHE         N/A    N/A N/A N/A MISG        N/A
CANCUN         PTCLDY    75  70  83 SE7       29.95F
CHETUMAL         N/A    N/A N/A N/A MISG        N/A
CD. DEL CARMEN   N/A    N/A N/A N/A MISG        N/A
COZUMEL          N/A    N/A N/A N/A MISG        N/A
MERIDA         CLEAR     77  68  73 E14       29.90F
MINATITLAN       N/A    N/A N/A N/A MISG        N/A
TAPACHULA      MOCLDY    79  72  78 CALM      29.87F

CENTRAL AMERICA

CITY           SKY/WX    TMP DP  RH WIND       PRES   REMARKS
MANAGUA        MOSUNNY   77  68  73 SE5       29.83S

CARIBBEAN

CITY           SKY/WX    TMP DP  RH WIND       PRES   REMARKS
CURACAO        PTCLDY    77  73  88 E7        29.86S
KINGSTON       PTCLDY    79  70  73 S3        29.89S
NASSAU         PTCLDY    66  57  72 CALM      30.01S
SAN JUAN       CLEAR     75  73  94 S3        29.89F
SANTO DOMINGO  PTCLDY    73  70  88 N5        29.86F
ST. CROIX      CLEAR     73  72  94 N5        29.91
ST. MAARTEN    PTCLDY    77  77 100 E1        29.89F
ST. THOMAS     PTCLDY    77  73  88 S6        29.89

$$





USA.gov is the U.S. government's official web portal to all federal, state and local government web resources and services.